Flag for Lithuania Weather past 2 weeks in Vilnius, Lithuania

Now
39 °F

Passing clouds.


Feels Like: 31 °F
Forecast: 30 / 34 °F
Wind: 14 mph from West

Location: Vilnius Airport

Current Time: Dec 20, 2014 at 6:46:21 AM

Latest Report: Dec 20, 2014 at 5:50 AM


Visibility: N/A

Pressure: 29.50 "Hg

Humidity: 81%

Dew point: 34 °F

Location of VilniusLocation

Historic Weather in Vilnius — Graph

°F

Vilnius temperature yesterday

Maximum temperature yesterday: 50 °F (at 1:50 PM)
Minimum temperature yesterday: 36 °F (at 12:20 AM)
Average temperature yesterday: 44 °F

Past Weeks' High & Low Weather Summary

 TemperatureHumidityPressure
High50 °F (Dec 19, 1:50 PM)100% (Dec 5, 5:20 AM)30.36 "Hg (Dec 5, 5:20 AM)
Low21 °F (Dec 10, 11:20 PM)75% (Dec 13, 2:20 PM)29.39 "Hg (Dec 13, 4:20 AM)
Average33 °F97%29.90 "Hg
* Reported Dec 5 5:20 AM — Dec 20 5:20 AM, Vilnius, Weather by CustomWeather, © 2014

Note: Actual official high and low records may vary slightly from our data, if they occured in-between our weather recording intervals... More about our weather records

Advertising

Vilnius weather history for previous 24 hours

 ConditionsComfort  
Time TempWeatherWind HumidityBarometerVisibility
5:20 AM
Dec 20
39 °FPassing clouds.14 mph81%29.50 "Hg5 mi
4:50 AM39 °FPassing clouds.16 mph87%29.50 "Hg5 mi
4:20 AM41 °FMostly cloudy.16 mph81%29.50 "Hg5 mi
3:50 AM41 °FPassing clouds.13 mph87%29.50 "Hg5 mi
3:20 AM41 °FPassing clouds.14 mph87%29.47 "Hg5 mi
2:50 AM41 °FPassing clouds.14 mph87%29.47 "Hg5 mi
2:20 AM41 °FPartly cloudy.12 mph93%29.47 "Hg5 mi
1:50 AM43 °FMostly cloudy.16 mph87%29.47 "Hg4 mi
1:20 AM43 °FMostly cloudy.13 mph87%29.47 "Hg4 mi
12:50 AM43 °FMostly cloudy.13 mph93%29.45 "Hg4 mi
12:20 AM45 °FRain. Mostly cloudy.16 mph87%29.45 "Hg2 mi
11:50 PM
Dec 19
45 °FLight rain. Mostly cloudy.14 mph93%29.45 "Hg4 mi
11:20 PM45 °FLight rain. Mostly cloudy.14 mph93%29.45 "Hg4 mi
10:50 PM45 °FLight rain. Mostly cloudy.10 mph93%29.45 "Hg4 mi
10:20 PM45 °FLight rain. Mostly cloudy.8 mph93%29.42 "Hg4 mi
9:50 PM45 °FLight rain. Mostly cloudy.9 mph93%29.42 "Hg4 mi
9:20 PM46 °FLight rain. Fog.7 mph93%29.42 "Hg2 mi
8:50 PM46 °FRain. Mostly cloudy.8 mph93%29.42 "Hg2 mi
8:20 PM50 °FLight rain. Mostly cloudy.16 mph94%29.39 "Hg4 mi
7:50 PM50 °FLight rain. Mostly cloudy.14 mph94%29.39 "Hg4 mi
7:20 PM48 °FLight rain. Fog.13 mph100%29.39 "Hg2 mi
6:50 PM48 °FLight rain. Fog.15 mph100%29.39 "Hg2 mi
6:20 PM46 °FRain. Fog.7 mph100%29.42 "Hg2 mi
5:50 PM46 °FHeavy rain. Mostly cloudy.5 mph100%29.42 "Hg1 mi
5:20 PM46 °FLight rain. Fog.6 mph93%29.45 "Hg2 mi
4:50 PM46 °FLight rain. Mostly cloudy.7 mph93%29.45 "Hg4 mi
4:20 PM46 °FOvercast.9 mph93%29.47 "HgN/A
3:50 PM46 °FPartly sunny.9 mph87%29.47 "HgN/A
3:20 PM46 °FPartly sunny.10 mph87%29.47 "HgN/A
2:50 PM48 °FPartly sunny.14 mph87%29.47 "HgN/A
2:20 PM48 °FPartly sunny.14 mph87%29.47 "HgN/A
1:50 PM50 °FPartly sunny.17 mph88%29.47 "HgN/A
1:20 PM48 °FMostly cloudy.17 mph94%29.47 "Hg5 mi
12:50 PM48 °FFog.17 mph94%29.45 "Hg2 mi
12:20 PM48 °FLight rain. Fog.14 mph94%29.45 "Hg2 mi
11:50 AM48 °FLight rain. Fog.14 mph94%29.45 "Hg2 mi
11:20 AM48 °FDrizzle. Fog.15 mph94%29.45 "Hg2 mi
10:50 AM46 °FDrizzle. Fog.15 mph100%29.45 "Hg2 mi
10:20 AM46 °FDrizzle. Fog.13 mph100%29.45 "Hg2 mi
9:50 AM46 °FLight rain. Fog.14 mph93%29.45 "Hg2 mi
9:20 AM46 °FLight rain. Fog.16 mph100%29.45 "Hg2 mi
8:50 AM45 °FLight rain. Fog.15 mph100%29.45 "Hg2 mi
8:20 AM45 °FRain. Fog.14 mph100%29.42 "Hg2 mi
7:50 AM43 °FRain. Fog.16 mph100%29.42 "Hg2 mi
7:20 AM43 °FRain. Fog.15 mph100%29.42 "Hg1 mi
6:50 AM43 °FLight rain. Fog.15 mph100%29.42 "Hg2 mi
6:20 AM41 °FLight rain. Fog.16 mph100%29.45 "Hg2 mi
Weather by CustomWeather, © 2014

See weather overviewHow to use our weather pages